COSMOS 1275 DEB, 42148

Orbit data source: Space-Track

COSMOS 1275 DEB, 42148 is space debris in LEO originally from a launch on Thu, 04 Jun 1981 UTC launched from the Plesetsk Missile And Space Complex (PKMTR). Debris objects in space refer to the collection of defunct objects orbiting the Earth. Examples of debris include non-operational satellites, rocket bodies, and fragments generated from explosions, collisions, or faulty payload assembly.

Loading next visibility...
Identifier
42148, 1981-053RL
Orbit
LEO
Country
Flag of CISCIS
Related business
Manufacturer
Unknown
Mission
Spacecraft
Bus & Motor
Unknown
Mass
Unknown
Launch date (UTC)
1981-06-04 (45 years ago)
Launch vehicle
Unknown
Launch site
Plesetsk Missile And Space Complex (PKMTR)
Object type
Payload
Rocket body
Debris
Shape & HBR
Unknown shape, 0.1 m
Radar Cross Section
Small (<0.1 m²)

Expand to show TLE details & history
Last TLE update: 5 hours ago

TLE from 5 hours ago
0 COSMOS 1275 DEB
1 42148U 81053RL  26145.15144700  .00001263  00000-0  10653-2 0  9995
2 42148  83.0950 213.1158 0075688 239.2876 120.0815 13.85771977630526
Epoch: 2026-05-25T03:38Z
TLE epoch observation values (Epoch: 2026-05-25T03:38:05.020Z)
Latitude
-0.00006°
Longitude
-84.14848°
Altitude
974.498 km
Speed
7.35 km/s
True Right ascension
14h 12m 27s
True Declination
0° 00' 00"
Sunlit
Object was in full shadow at epoch
Visualization orbit readout
Latitude
Unknown
Longitude
Unknown
Altitude
Unknown
Speed
Unknown
Apparent Right ascension
Unknown
Apparent Declination
Unknown
Sunlit
N/A
Visualization observer readout
Local Sidereal Time
17:47:36
Azimuth
Unknown
Elevation
Unknown
Doppler factor
Unknown
Orbital elements
Apogee altitude
996.007 km
Perigee altitude
885.219 km
Semi-major axis
7,318.75 km
Eccentricity
0.00757
Inclination
83.095°
RAAN
213.1158°
Arg. of periapsis
239.2876°
True anomaly
120.82844°
Mean anomaly
120.0815°
Eccentric anomaly
120.45533°
Mean motion
3.46647 °/min
Orbital period
103.85 mins
BSTAR
0.0010653
Loading maneuver chart data...
Computing Atmospheric mass density...
Loading historical data...
Loading historical data...
Loading historical data...
Loading historical data...
Loading historical data...
Loading historical data...
Loading historical data...

Documentation

Showing up to 5 results
|